{"data":{"norad_id":63806,"intl_designator":"2025-092C","name":"STARLINK-34102","alt_names":[],"object_type":"PAYLOAD","status":"ACTIVE","operator":null,"country":"US","launch_date":"2025-05-04","launch_site_code":"AFETR","launch_vehicle":null,"mission":null,"orbit_class":"UNKNOWN","rcs_meters":null,"size_class":null,"mass_kg":null,"dimensions":null,"purposes":["comms"],"wikipedia_slug":null,"has_3d_model":false,"image_url":null,"decayed_at":null,"tle_current":{"epoch":"2026-05-25T05:03:33.112224Z","epoch_age_seconds":67569,"freshness":"FRESH","line1":"1 63806U 25092C   26145.21079991  .00015954  00000+0  58775-3 0  9995","line2":"2 63806  43.0009 100.7338 0001411 262.7648  97.3043 15.27594596 60369","mean_motion":15.27594596,"eccentricity":0.0001411,"inclination_deg":43.0009,"raan_deg":100.7338,"arg_perigee_deg":262.7648,"mean_anomaly_deg":97.3043,"bstar":0.00058775,"rev_number":6036,"period_min":94.265848005134,"perigee_km":482.03728352144,"apogee_km":483.9734979041,"semimajor_km":6861.1423907128,"source":"CELESTRAK","updated_at":"2026-05-25T13:38:20.139397Z"}}}